User: anonymous   Login
Location: Unnamed
(33.0780°N, 97.0417°W)
Time: 18:36:16
(UTC-06:00)
Language:

Hubble Space Telescope - Orbit

View from above orbital plane
View from above orbital plane
View from above satellite
View from above satellite

Ground track
Ground track

The orbit data is extracted from the following two-line orbital elements,

1 20580U 90037B   21332.57706538  .00000895  00000-0  42965-4 0  9998
2 20580  28.4708  58.9725 0002804  35.1153 344.9045 15.09854923535822
Epoch (UTC): 28 November 2021 13:50:58
Eccentricity: 0.0002804
inclination: 28.4708°
perigee height: 535 km
apogee height: 538 km
right ascension of ascending node: 58.9725°
argument of perigee: 35.1153°
revolutions per day: 15.09854923
mean anomaly at epoch: 344.9045°
orbit number at epoch: 53582

The dashed part of the orbit path shows where the satellite is in the earth's shadow,  

DLR